Location: Casper
(42.8670°N, 106.3130°W)
Time: 03:45:16
(UTC-07:00)

Daily predictions for brighter satellites

Satellite Brightness Start Highest point End
(mag) Time Altitude Azimuth Time Altitude Azimuth Time Altitude Azimuth
Cosmos 2237 Rocket 4.3 03:49:37 23° E 03:49:37 23° E 03:52:08 10° ESE
Cosmos 2297 Rocket 4.2 03:59:58 22° ESE 04:01:17 24° ESE 04:05:43 10° NE
Cosmos 2227 Rocket 3.5 04:14:08 37° E 04:14:08 37° E 04:18:29 10° NE
Cosmos 2016 Rocket 4.5 04:27:04 55° NE 04:27:04 55° NE 04:32:09 10° NNE
CZ-3 Stage 3 4.1 04:28:45 17° SSE 04:28:45 17° SSE 04:32:42 10° ESE
Cosmos 1980 4.5 04:35:48 46° SE 04:35:48 46° SE 04:39:41 10° SSE
Cosmos 540 Rocket 4.2 04:40:01 50° E 04:40:01 50° E 04:44:40 10° SE
COSMO-SKYMED 1 4.2 04:36:16 10° SE 04:40:06 32° ENE 04:40:06 32° ENE
Cosmos 2082 4.1 04:40:04 58° SE 04:40:32 61° ESE 04:46:11 10° NNE
Cosmos 2333 Rocket 3.3 04:43:13 35° SSE 04:43:13 35° SSE 04:46:27 10° SSE
ISS -0.4 04:55:55 16° ENE 04:55:55 16° ENE 04:56:51 10° E
Tsikada Rocket 4.1 04:50:20 10° N 04:56:46 76° E 05:03:05 10° SSE
Cosmos 1818 4.2 05:05:23 43° N 05:05:23 43° N 05:09:20 10° NNE
Cosmos 2219 Rocket 3.9 05:07:49 19° SSW 05:07:49 19° SSW 05:09:29 10° S
USA 234 3.8 05:02:38 10° ESE 05:08:54 50° NNE 05:11:50 30° NNW
ATLAS CENTAUR R/B 4.5 05:10:36 11° N 05:10:36 11° N 05:12:01 10° NNE
Ariane Rocket 4.3 05:06:33 10° NNE 05:11:20 39° E 05:16:06 10° SSE
Meteor 2-17 Rocket 4.2 05:05:42 10° SSW 05:11:43 74° W 05:17:48 10° N
Feng Yun 1-1 Rocket 4.3 05:14:39 10° N 05:19:21 52° NW 05:19:21 52° NW
SL-24 R/B 4.4 05:20:28 10° NNE 05:25:07 86° ESE 05:30:35 10° SSW
Cosmos 1725 Rocket 3.9 05:20:33 10° SSW 05:26:43 63° W 05:32:59 10° N
Cosmos 1864 Rocket 4.4 05:21:40 10° SSW 05:27:41 62° W 05:33:48 10° N
SKYMED 2 3.4 05:23:46 10° S 05:28:05 77° WSW 05:28:46 61° NW
Cosmos 2237 Rocket 2.6 05:31:31 40° WSW 05:31:31 40° WSW 05:36:29 10° S
SL-16 R/B 2.1 05:30:41 26° NNW 05:33:58 88° WSW 05:39:39 10° SSE
Cosmos 1340 Rocket 4.5 05:30:49 10° N 05:34:24 33° ENE 05:37:59 10° SE
NOAA 6 4.0 05:34:15 10° N 05:39:19 56° WNW 05:44:24 10° SSW
SL-8 R/B 4.3 05:42:28 35° NW 05:43:55 45° N 05:48:32 10° E
Cosmos 2297 Rocket 2.3 05:41:55 25° SW 05:44:57 51° WNW 05:50:29 10° NNE
Cosmos 968 Rocket 3.5 05:42:46 10° SSW 05:48:01 83° ESE 05:53:19 10° NNE
SeaSat 1 4.3 05:46:08 10° N 05:47:40 15° NNW 05:47:40 15° NNW
SL-14 R/B 3.4 05:45:48 10° N 05:49:52 78° E 05:53:55 10° SSE
Cosmos 1271 Rocket 3.4 05:47:07 10° S 05:50:52 54° E 05:54:36 10° NNE
CZ-2C R/B 3.9 05:48:06 10° NNE 05:52:22 36° E 05:56:34 10° SSE
BREEZE-M DEB (TANK) 3.7 05:52:17 26° NNW 05:52:28 26° N 05:54:37 10° NE
CZ-4 R/B 2.9 05:51:06 10° NNE 05:54:54 39° E 05:58:44 10° SSE
Meteor 1-16 Rocket 4.1 05:51:09 10° S 05:56:38 89° E 06:02:00 10° N
Cosmos 2227 Rocket 2.9 05:56:03 29° W 05:57:22 32° NW 06:02:25 10° N
Meteor 1-28 Rocket 3.3 05:55:02 10° S 05:58:42 51° W 06:00:26 27° NW
Cosmos 2221 3.2 05:56:03 10° S 06:00:19 57° E 06:04:34 10° NNE
Aureole 2 Rocket 3.5 06:02:28 31° WNW 06:03:25 35° WSW 06:07:15 10° SSW
Cosmos 1743 Rocket 4.3 06:05:32 26° WNW 06:06:46 31° W 06:10:39 10° SSW
USA 229 DEB 4.1 06:03:49 20° NW 06:08:35 47° WSW 06:15:25 10° S
USA 229 4.1 06:03:52 19° NW 06:08:41 47° WSW 06:15:32 10° S
Meteor 2-1 Rocket 4.5 06:03:48 10° S 06:09:21 74° E 06:15:04 10° NNE
Meteor 1-4 Rocket 3.0 06:08:53 10° SW 06:12:22 39° WNW 06:15:57 10° N
IDEFIX/ARIANE 42P 3.2 06:08:19 10° NNE 06:13:33 62° E 06:18:45 10° S
SMAP 3.9 06:10:23 10° NNE 06:14:58 54° E 06:19:31 10° S
Cosmos 1777 Rocket 4.2 06:09:49 10° SSW 06:15:01 76° ESE 06:20:14 10° NNE
COSMO-SKYMED 1 3.7 06:12:50 10° SSW 06:16:19 23° W 06:17:20 21° WNW
Cosmos 1842 Rocket 4.1 06:13:01 10° SW 06:16:59 34° WNW 06:20:59 10° N
Cosmos 1943 4.5 06:13:11 10° NNW 06:18:32 39° ENE 06:23:50 10° SE
Cosmos 2233 Rocket 4.4 06:12:49 10° SW 06:18:38 40° WNW 06:24:32 10° N
Cosmos 1184 Rocket 4.3 06:16:01 10° N 06:19:09 37° ENE 06:22:15 10° SE
Cosmos 1626 2.9 06:17:47 10° N 06:21:29 55° E 06:25:08 10° SSE
NOSS 3-1 (A) 4.2 06:14:56 10° NW 06:22:32 81° NE 06:30:56 10° SE
Cosmos 2058 3.0 06:21:47 10° NNW 06:25:48 54° W 06:29:49 10° S
Cosmos 1805 Rocket 3.6 06:22:17 10° N 06:26:45 88° E 06:31:08 10° S
ISS -3.1 06:28:35 20° WNW 06:30:40 57° SW 06:33:51 10° SE
ATLAS 2AS CENTAUR R/B 4.2 06:23:41 10° NNW 06:31:10 38° NE 06:38:16 10° ESE
SL-12 R/B (Aux Motor) 4.4 06:28:14 10° WSW 06:33:28 88° SSE 06:35:47 10° ENE
Cosmos 2034 Rocket 4.0 06:27:38 10° S 06:33:49 89° W 06:40:06 10° N
CSL-04 Debris 4.3 06:30:33 10° N 06:35:54 53° WNW 06:41:10 10° SW
Cosmos 1538 Rocket 4.5 06:31:55 10° NNW 06:36:59 42° WSW 06:42:00 10° S
Cosmos 1908 4.2 06:33:43 10° S 06:37:24 49° E 06:41:07 10° NNE
Cosmos 1603 3.7 06:32:01 10° NNW 06:37:38 74° WSW 06:43:15 10° SSE
Meteor 1-29 3.6 06:34:36 10° SSE 06:38:02 58° ENE 06:41:30 10° N
Cosmos 2151 3.8 06:34:32 10° NNW 06:38:13 29° W 06:41:53 10° SSW
ERBS 2.3 06:36:35 13° NW 06:39:32 83° SW 06:42:57 10° SE
CORIOLIS 4.3 06:37:10 10° NNE 06:42:37 81° ESE 06:48:03 10° SSW
Helios 1B rocket 2.4 06:38:33 10° SSE 06:42:39 89° WSW 06:46:48 10° NNW
Cosmos 923 Rocket 4.0 06:39:20 10° NNW 06:44:34 80° WSW 06:49:48 10° SSE
Nadezhda 4 Rocket 4.2 06:39:19 10° N 06:45:43 85° E 06:52:01 10° S
SJ-7 4.3 06:43:58 10° N 06:47:57 67° WNW 06:51:57 10° SSW
Cosmos 2263 Rocket 3.7 06:44:17 10° S 06:49:36 43° ESE 06:54:57 10° NE
Ariane Rocket 3.9 06:45:53 10° N 06:50:06 27° WNW 06:54:20 10° WSW
USA 234 3.5 06:45:22 10° SSE 06:51:49 58° SW 06:58:17 10° NW
Cosmos 1356 Rocket 3.5 06:47:54 10° NNW 06:51:54 55° W 06:55:56 10° S
Cosmos 389 Rocket 2.9 06:49:14 10° S 06:52:52 71° E 06:56:33 10° NNE
Cosmos 1680 Rocket 3.6 06:48:59 10° NNW 06:54:19 85° WSW 06:59:38 10° SSE
Cosmos 1633 Rocket 3.0 06:51:15 10° N 06:55:38 80° W 06:59:57 10° S
Sich 1 3.0 06:51:50 10° NNW 06:56:12 69° W 07:00:29 10° S
MOS 1 4.3 06:50:45 10° NNE 06:56:28 78° WNW 07:02:10 10° SSW
Cosmos 1092 Rocket 4.2 06:54:08 10° N 07:00:29 80° E 07:06:43 10° S
Cosmos 1328 Rocket 3.9 06:56:38 10° S 07:00:55 71° E 07:05:16 10° NNE
Genesis I 3.6 06:59:12 10° NW 07:03:00 48° WSW 07:06:46 10° SSE
Cosmos 1703 4.0 07:00:09 10° NNW 07:03:40 32° W 07:07:11 10° SSW
NOSS 3-1 (C) 4.4 06:57:20 10° NW 07:04:40 50° WSW 07:12:38 10° S
Cosmos 1515 Rocket 4.4 07:00:36 10° S 07:04:54 58° E 07:09:16 10° NNE
Cosmos 2227 4.4 07:00:10 10° SW 07:05:32 47° WNW 07:10:59 10° NNE
Cosmos 1464 Rocket 4.5 07:00:24 10° SW 07:06:15 38° WNW 07:12:06 10° N
